Observations for Trim Patrick St
| Time | AQI | Temp °C | Hum % | Pres Pa | CO μg/m³ | H₂S μg/m³ | NO μg/m³ | NO₂ μg/m³ | O₃ μg/m³ | SO₂ μg/m³ | PM1 μg/m³ | PM2.5 μg/m³ | PM10 μg/m³ |
|---|---|---|---|---|---|---|---|---|---|---|---|---|---|
| Saturday 8 August 2026 | |||||||||||||
| 19:41 | 3 | 27.8 | 39 | 69,179 | 0 | 14.54 | 0.84 | 24.34 | 62.38 | 13.35 | 2.86 | 7.87 | 8.65 |
| 19:40 | 3 | 27.8 | 39 | 69,167 | 0 | 17.21 | 0.84 | 19.21 | 64.46 | 14.46 | 2.86 | 8.65 | 9.52 |
| 19:39 | 3 | 27.9 | 39 | 69,181 | 0 | 16.41 | 0.82 | 22.57 | 69.15 | 13.86 | 2 | 7.08 | 7.79 |
| 19:38 | 3 | 27.8 | 39 | 69,175 | 0 | 16.31 | 0.87 | 23.03 | 60.7 | 13.48 | 2 | 7.88 | 8.67 |
| 19:37 | 3 | 27.9 | 39 | 69,161 | 0 | 19.4 | 0.83 | 34.85 | 56.75 | 14.17 | 2.86 | 8.66 | 9.53 |
| 19:36 | 3 | 27.9 | 39 | 69,181 | 0 | 18.14 | 0.79 | 22.62 | 67.72 | 14.39 | 2 | 7.87 | 8.66 |
| 19:35 | 3 | 27.9 | 39 | 69,173 | 0 | 16.62 | 0.78 | 17.97 | 72.71 | 14.11 | 2 | 7.87 | 8.66 |
| 19:34 | 3 | 27.9 | 39 | 69,159 | 0 | 18.7 | 0.79 | 25.04 | 66.37 | 14.77 | 2.86 | 7.9 | 8.69 |
| 19:33 | 3 | 28 | 39 | 69,138 | 0 | 18.38 | 0.77 | 22.79 | 61.38 | 14.68 | 2.86 | 8.7 | 9.57 |
| 19:32 | 3 | 28 | 39 | 69,175 | 0 | 16.94 | 0.77 | 22.79 | 64.41 | 14.5 | 2.86 | 7.91 | 8.7 |
| 19:31 | 3 | 28.1 | 39 | 69,165 | 0 | 15.25 | 0.76 | 21.7 | 70.34 | 14.36 | 2 | 7.92 | 8.71 |
| 19:30 | 3 | 28.1 | 38 | 69,181 | 0 | 14.87 | 0.76 | 14.57 | 65.48 | 14.01 | 2.86 | 8.71 | 9.59 |
| 19:29 | 3 | 28.2 | 38 | 69,175 | 0 | 17.08 | 0.75 | 24.19 | 68.72 | 14.93 | 2 | 7.94 | 8.73 |
| 19:28 | 3 | 28.2 | 38 | 69,165 | 0 | 15.62 | 0.75 | 15.11 | 66.85 | 14.28 | 2.86 | 7.94 | 8.73 |
| 19:27 | 3 | 28.3 | 38 | 69,177 | 0 | 15.8 | 0.77 | 18.56 | 71.58 | 14.84 | 2.86 | 7.93 | 8.73 |
| 19:25 | 3 | 28.4 | 38 | 69,175 | 0 | 15.2 | 0.76 | 16.1 | 84.28 | 14.81 | 2.86 | 7.95 | 8.74 |
| 19:24 | 3 | 28.5 | 38 | 69,193 | 0 | 11.51 | 0.77 | 15.2 | 57.62 | 13.87 | 2 | 7.97 | 8.76 |
| 19:23 | 3 | 28.5 | 38 | 69,212 | 0 | 12.68 | 0.79 | 25.68 | 57.47 | 13.74 | 2 | 7.17 | 7.89 |
| 19:22 | 3 | 28.6 | 38 | 69,206 | 0 | 15.97 | 0.73 | 17.48 | 68.24 | 15.19 | 2.86 | 7.96 | 8.75 |
| 19:21 | 3 | 28.6 | 38 | 69,199 | 0 | 19.28 | 0.75 | 24.56 | 69.14 | 15.46 | 2 | 7.18 | 7.89 |